• In United Kingdom
  • List of Countries
  • For 7 days
  • Water Temperature
  • Satellite Maps
  • Weather Map
  • Weather Widgets
  • user-avatar
    Login

    Hourly Weather Uige

    Today, 20 October, Saturday

    Time Temperature Precipitation Wind Pressure Humidity
    00:00 +23°C° 0.2 mm 1 mps 690 mmHg 91%
    01:00 +23°C° 0.2 mm 1 mps 690 mmHg 93%
    02:00 +22°C° 0.1 mm 1 mps 690 mmHg 94%
    03:00 +22°C° 0.1 mm 1 mps 690 mmHg 95%
    04:00 +22°C° 0.1 mm 1 mps 690 mmHg 96%
    05:00 +23°C° 0 mm 1 mps 690 mmHg 94%
    06:00 +23°C° 0 mm 1 mps 690 mmHg 93%
    07:00 +24°C° 0 mm 1 mps 691 mmHg 91%
    08:00 +26°C° 0 mm 1 mps 691 mmHg 82%
    09:00 +28°C° 0 mm 1 mps 692 mmHg 72%
    10:00 +31°C° 0 mm 1 mps 692 mmHg 63%
    11:00 +31°C° 0.5 mm 1 mps 692 mmHg 60%
    12:00 +30°C° 0.5 mm 0 mps 691 mmHg 57%
    13:00 +31°C° 0.5 mm 0 mps 690 mmHg 55%
    14:00 +30°C° 0.2 mm 0 mps 690 mmHg 56%
    15:00 +31°C° 0.2 mm 1 mps 689 mmHg 57%
    16:00 +31°C° 0.2 mm 1 mps 689 mmHg 58%
    17:00 +29°C° 1.7 mm 1 mps 689 mmHg 68%
    18:00 +27°C° 1.7 mm 1 mps 689 mmHg 77%
    19:00 +25°C° 1.7 mm 1 mps 689 mmHg 86%
    20:00 +24°C° 0.6 mm 1 mps 690 mmHg 89%
    21:00 +24°C° 0.6 mm 1 mps 690 mmHg 91%
    22:00 +24°C° 0.6 mm 1 mps 690 mmHg 93%
    23:00 +23°C° 0.3 mm 1 mps 690 mmHg 94%

    Tomorrow, 21 October, Sunday

    Time Temperature Precipitation Wind Pressure Humidity
    00:00 +23°C° 0.3 mm 1 mps 690 mmHg 95%
    01:00 +23°C° 0.3 mm 2 mps 690 mmHg 96%
    02:00 +23°C° 0.2 mm 2 mps 690 mmHg 96%
    03:00 +23°C° 0.2 mm 2 mps 689 mmHg 96%
    04:00 +23°C° 0.2 mm 2 mps 689 mmHg 96%
    05:00 +23°C° 0 mm 2 mps 690 mmHg 95%
    06:00 +23°C° 0 mm 1 mps 690 mmHg 93%
    07:00 +23°C° 0 mm 1 mps 691 mmHg 92%
    08:00 +25°C° 0.8 mm 1 mps 691 mmHg 83%
    09:00 +28°C° 0.8 mm 1 mps 691 mmHg 75%
    10:00 +30°C° 0.8 mm 1 mps 691 mmHg 66%
    11:00 +32°C° 0.2 mm 1 mps 691 mmHg 58%
    12:00 +33°C° 0.2 mm 1 mps 690 mmHg 50%
    13:00 +35°C° 0.2 mm 1 mps 690 mmHg 42%
    14:00 +34°C° 0 mm 1 mps 689 mmHg 46%
    15:00 +32°C° 0 mm 1 mps 689 mmHg 50%
    16:00 +29°C° 0 mm 0 mps 688 mmHg 54%
    17:00 +27°C° 0.2 mm 0 mps 689 mmHg 61%
    18:00 +26°C° 0.2 mm 0 mps 689 mmHg 67%
    19:00 +24°C° 0.2 mm 0 mps 689 mmHg 74%
    20:00 +24°C° 1.1 mm 0 mps 689 mmHg 79%
    21:00 +23°C° 1.1 mm 0 mps 690 mmHg 84%
    22:00 +22°C° 1.1 mm 0 mps 690 mmHg 89%
    23:00 +22°C° 1.1 mm 0 mps 690 mmHg 91%

    Day after tomorrow, 22 October, Monday

    Time Temperature Precipitation Wind Pressure Humidity
    00:00 +23°C° 1.1 mm 1 mps 690 mmHg 93%
    01:00 +23°C° 1.1 mm 1 mps 689 mmHg 95%
    02:00 +23°C° 0.4 mm 1 mps 689 mmHg 96%
    03:00 +23°C° 0.4 mm 1 mps 689 mmHg 96%
    04:00 +23°C° 0.4 mm 1 mps 689 mmHg 97%
    05:00 +23°C° 0.5 mm 1 mps 690 mmHg 95%
    06:00 +23°C° 0.5 mm 1 mps 690 mmHg 94%
    07:00 +24°C° 0.5 mm 1 mps 691 mmHg 93%
    08:00 +25°C° 1.7 mm 1 mps 691 mmHg 88%
    09:00 +26°C° 1.7 mm 1 mps 692 mmHg 84%
    10:00 +27°C° 1.7 mm 1 mps 692 mmHg 80%
    11:00 +27°C° 1.2 mm 1 mps 691 mmHg 79%
    12:00 +27°C° 1.2 mm 1 mps 690 mmHg 78%
    13:00 +27°C° 1.2 mm 1 mps 690 mmHg 78%
    14:00 +26°C° 0.7 mm 1 mps 689 mmHg 80%
    15:00 +26°C° 0.7 mm 1 mps 689 mmHg 82%
    16:00 +25°C° 0.7 mm 1 mps 688 mmHg 85%
    17:00 +25°C° 0.2 mm 1 mps 689 mmHg 87%
    18:00 +24°C° 0.2 mm 1 mps 689 mmHg 88%
    19:00 +23°C° 0.2 mm 1 mps 689 mmHg 90%
    20:00 +21°C° 0 mm 0 mps 690 mmHg 90%
    21:00 +21°C° 0 mm 0 mps 690 mmHg 90%
    22:00 +21°C° 0 mm 0 mps 691 mmHg 90%
    23:00 +21°C° 0.2 mm 0 mps 691 mmHg 90%

    23 October, Tuesday

    Time Temperature Precipitation Wind Pressure Humidity
    00:00 +21°C° 0.2 mm 0 mps 690 mmHg 91%
    01:00 +21°C° 0.2 mm 0 mps 690 mmHg 92%
    02:00 +20°C° 0.5 mm 0 mps 690 mmHg 92%
    03:00 +20°C° 0.5 mm 0 mps 690 mmHg 93%
    04:00 +20°C° 0.5 mm 0 mps 690 mmHg 94%
    05:00 +20°C° 0 mm 0 mps 691 mmHg 93%
    06:00 +23°C° 0 mm 1 mps 691 mmHg 91%
    07:00 +23°C° 0 mm 1 mps 692 mmHg 90%
    08:00 +25°C° 0.4 mm 1 mps 692 mmHg 81%
    09:00 +27°C° 0.4 mm 1 mps 693 mmHg 71%
    10:00 +30°C° 0.4 mm 1 mps 693 mmHg 62%
    11:00 +30°C° 0.7 mm 1 mps 692 mmHg 59%
    12:00 +31°C° 0.7 mm 1 mps 692 mmHg 56%
    13:00 +32°C° 0.7 mm 1 mps 691 mmHg 53%
    14:00 +30°C° 1.8 mm 1 mps 691 mmHg 64%
    15:00 +27°C° 1.8 mm 1 mps 690 mmHg 75%
    16:00 +25°C° 1.8 mm 1 mps 689 mmHg 86%
    17:00 +24°C° 1.4 mm 1 mps 690 mmHg 88%
    18:00 +24°C° 1.4 mm 1 mps 691 mmHg 89%
    19:00 +21°C° 1.4 mm 0 mps 691 mmHg 91%
    20:00 +21°C° 0.2 mm 0 mps 691 mmHg 91%
    21:00 +21°C° 0.2 mm 0 mps 692 mmHg 91%
    22:00 +21°C° 0.2 mm 0 mps 692 mmHg 91%
    23:00 +22°C° 0.4 mm 1 mps 691 mmHg 92%

    24 October, Wednesday

    Time Temperature Precipitation Wind Pressure Humidity
    00:00 +22°C° 0.4 mm 1 mps 691 mmHg 93%
    01:00 +22°C° 0.4 mm 1 mps 691 mmHg 94%
    02:00 +22°C° 0.6 mm 1 mps 691 mmHg 94%
    03:00 +22°C° 0.6 mm 1 mps 691 mmHg 94%
    04:00 +22°C° 0.6 mm 1 mps 691 mmHg 95%
    05:00 +21°C° 0.4 mm 2 mps 691 mmHg 94%
    06:00 +21°C° 0.4 mm 2 mps 692 mmHg 93%
    07:00 +21°C° 0.4 mm 2 mps 692 mmHg 93%
    08:00 +23°C° 0.3 mm 2 mps 692 mmHg 88%
    09:00 +24°C° 0.3 mm 3 mps 693 mmHg 84%
    10:00 +25°C° 0.3 mm 3 mps 693 mmHg 79%
    11:00 +25°C° 0.3 mm 3 mps 692 mmHg 77%
    12:00 +26°C° 0.3 mm 2 mps 692 mmHg 75%
    13:00 +26°C° 0.3 mm 2 mps 691 mmHg 73%
    14:00 +26°C° 0.2 mm 2 mps 690 mmHg 75%
    15:00 +25°C° 0.2 mm 1 mps 690 mmHg 78%
    16:00 +25°C° 0.2 mm 1 mps 689 mmHg 81%
    17:00 +24°C° 0 mm 1 mps 690 mmHg 82%
    18:00 +24°C° 0 mm 1 mps 690 mmHg 83%
    19:00 +23°C° 0 mm 1 mps 690 mmHg 84%
    20:00 +23°C° 0 mm 1 mps 691 mmHg 83%
    21:00 +22°C° 0 mm 1 mps 691 mmHg 82%
    22:00 +22°C° 0 mm 1 mps 691 mmHg 81%
    23:00 +22°C° 0 mm 1 mps 691 mmHg 82%

    25 October, Thursday

    Time Temperature Precipitation Wind Pressure Humidity
    00:00 +22°C° 0 mm 1 mps 690 mmHg 82%
    01:00 +21°C° 0 mm 1 mps 690 mmHg 83%
    02:00 +21°C° 0 mm 1 mps 690 mmHg 84%
    03:00 +21°C° 0 mm 1 mps 689 mmHg 84%
    04:00 +20°C° 0 mm 1 mps 689 mmHg 85%
    05:00 +21°C° 0 mm 1 mps 690 mmHg 83%
    06:00 +22°C° 0 mm 1 mps 690 mmHg 81%
    07:00 +23°C° 0 mm 1 mps 691 mmHg 79%
    08:00 +24°C° 0 mm 1 mps 691 mmHg 72%
    09:00 +26°C° 0 mm 1 mps 691 mmHg 65%
    10:00 +28°C° 0 mm 1 mps 692 mmHg 58%
    11:00 +30°C° 0.1 mm 1 mps 691 mmHg 53%
    12:00 +32°C° 0.1 mm 2 mps 690 mmHg 47%
    13:00 +34°C° 0.1 mm 2 mps 690 mmHg 41%
    14:00 +34°C° 0 mm 2 mps 689 mmHg 45%
    15:00 +32°C° 0 mm 1 mps 689 mmHg 49%
    16:00 +31°C° 0 mm 1 mps 688 mmHg 52%
    17:00 +29°C° 0 mm 1 mps 689 mmHg 58%
    18:00 +28°C° 0 mm 1 mps 689 mmHg 63%
    19:00 +24°C° 0 mm 0 mps 689 mmHg 68%
    20:00 +23°C° 0.7 mm 0 mps 690 mmHg 75%
    21:00 +22°C° 0.7 mm 0 mps 690 mmHg 82%
    22:00 +21°C° 0.7 mm 0 mps 690 mmHg 88%
    23:00 +21°C° 0.3 mm 0 mps 690 mmHg 90%
    Show more